SATGUS

Last updated on Fri Feb 14 2025 00:02:06 GMT+0000 (Coordinated Universal Time)

1 62713U 25009DJ 25042.99431196 .00007549 00000+0 73271-3 0 9997 2 62713 97.7444 125.1058 0001745 358.1127 2.0086 14.92920453 4214
UTC large
Height (km)
Speed (km/s)
/
Latitude / Longitude
Inclination (degrees)
Orbital Period (minutes)
Azimuth
Elevation
Range (km)
Doppler Factor

Next 0 passes for location: London (51.5072 / 0.1276)

Sorry there are no passes over London.
SATGUS